SCP
1 0 0 0 0 0 0 0 0 0 0 0 0 0 0 0 0 0 0 0 0 0 0 0 0 0 0 0 0 0 0 0 0 0 0 0 0 0
0 0 0 0 0 0 0 0 0 0 0 0 0 0 0 0 0 0 0 0 0 0 0 0 0 0 0 0 0 0 0 0 0 0 0 0 0 -0
0 0 0 0 0 0 0 0 0 0 0 0 0 0 0 0 0 0 0 0 0 0 0 0 0 0 0 0 0 0 0 0 0 0 -0 -0 -0 -0
0 0 0 0 0 0 0 0 0 0 0 0 0 0 0 0 0 0 0 0 0 0 0 0 0 0 0 0 0 0 0 0 0 0 -0 -0 -0 -0
0 0 0 0 0 0 0 0 0 0 0 0 0 0 0 0 0 0 0 0 0 0 0 0 0 0 0 0 0 0 0 0 0 0 0 0 0 -0
0 0 0 0 0 0 0 0 0 0 0 0 0 0 0 0 0 0 0 0 0 0 0 0 0 0 0 0 0 0 0 0 0 0 0 0 0 0
0 0 0 0 0 0 0 0 0 0 0 0 0 0 0 0 0 0 0 0 0 0 0 0 0 0 0 0 0 0 -0 -0 -0 -0 0 0 0 0
0 0 0 0 0 0 0 0 0 0 0 0 0 0 0 0 0 0 0 0 0 0 0 0 0 0 0 0 -0 -0 -0 0 0 -0 0 0 0 0
0 0 0 0 0 0 0 0 0 0 0 0 0 0 0 0 0 0 0 0 0 0 0 0 0 0 0 0 0 0 0 0 0 0 0 0 0 0
0 0 0 0 0 0 0 0 0 0 0 0 0 0 0 0 0 0 0 0 0 0 0 0 0 0 0 0 0 0 0 0 0 0 0 0 0 0
0 0 0 0 0 0 0 0 0 0 0 0 0 0 0 0 0 0 0 0 0 0 0 0 0 0 0 0 0 0 0 0 0 0 0 0 0 0
0 0 0 0 -0 -0 -0 0 0 0 0 0 0 0 0 0 0 0 0 0 0 0 0 0 0 0 0 0 0 0 0 0 0 0 0 0 0 0
0 0 0 -0 -0 -0 -0 -0 0 0 0 0 0 0 0 0 0 0 0 0 0 0 0 0 0 0 0 0 0 0 0 0 0 0 0 0 0 0
0 0 -0 -0 -0 -0 -0 0 0 -0 0 0 0 0 0 0 0 0 0 0 0 0 0 0 0 0 0 0 0 0 0 0 0 0 0 -0 0 0
0 -0 -0 -0 -0 -0 -0 -0 -0 -0 0 0 0 0 0 0 0 0 0 0 0 0 0 0 0 0 0 0 0 0 0 0 0 0 0 0 0 0
-0 -0 -0 -0 -0 -0 -0 -0 -0 0 0 0 0 0 0 0 0 0 0 0 0 0 0 0 0 0 0 0 0 0 0 0 0 0 0 0 0 0
-0 -0 -0 -0 -0 0 -0 -0 0 0 0 0 0 0 0 0 0 0 0 0 0 0 0 0 0 0 0 0 0 0 0 0 0 0 0 0 0 0
-0 -0 -0 -0 0 0 -0 0 0 0 0 0 0 0 0 0 0 0 0 0 0 0 0 0 0 0 0 0 0 0 0 0 0 0 0 0 0 0
-0 -0 -0 -0 0 -0 0 0 0 0 0 0 0 0 0 0 0 0 0 0 0 0 0 0 0 0 0 0 0 0 0 0 0 0 0 0 0 0
-0 -0 -0 0 0 -0 -0 -0 -0 -0 0 0 0 0 0 0 0 0 0 0 0 0 0 0 0 0 0 0 0 0 0 0 0 0 0 0 0 0
0 0 0 0 -0 -0 -0 -0 -0 0 0 0 0 0 0 0 0 0 0 0 0 0 0 0 0 0 0 0 0 0 0 0 0 0 0 0 0 0
0 0 0 0 -0 -0 -0 -0 -0 0 0 0 0 0 0 0 0 0 0 0 0 0 0 0 0 0 0 0 0 0 0 0 0 0 0 0 0 0
0 0 0 -0 -0 -0 -0 -0 0 0 0 0 0 0 0 0 0 0 0 0 0 0 0 0 0 0 0 0 0 0 0 0 0 0 0 0 0 0
Wind_Speed_500mb
76 79 75 60 55 43 38 33 24 17 18 26 25 34 39 41 48 53 55 59 58 54 52 53 55 54 52 49 45 45 43 38 30 28 35 32 32 34
70 68 60 51 43 35 33 31 29 20 15 20 27 34 37 39 46 49 53 54 52 48 48 51 52 52 49 45 44 43 36 32 29 27 27 31 32 29
56 57 46 36 28 30 30 25 21 15 17 23 27 27 33 38 44 47 49 45 45 45 44 45 43 42 45 43 35 28 27 31 32 28 27 28 28 30
63 60 51 46 36 34 24 18 13 14 15 15 17 23 29 39 44 46 42 36 37 34 35 36 36 37 29 23 24 25 26 26 22 26 29 30 29 29
71 56 54 46 37 25 18 12 8 9 8 9 14 22 30 37 42 39 39 37 36 27 28 28 24 25 26 25 27 31 30 30 26 24 26 29 31 31
63 61 51 38 30 18 12 5 4 5 9 13 14 22 27 35 34 36 39 37 36 24 27 25 21 24 27 27 31 35 33 31 31 30 29 29 32 33
65 60 49 37 27 18 8 1 3 8 12 12 16 16 21 30 32 34 33 39 31 28 29 21 23 26 22 22 29 28 28 30 31 29 25 20 19 21
65 52 40 30 22 12 2 5 7 9 12 12 14 18 23 26 31 31 30 36 33 30 34 30 24 34 23 20 25 27 31 34 30 28 28 27 26 27
66 50 39 30 23 10 8 2 7 10 12 14 17 21 25 32 36 29 27 30 32 32 35 26 31 41 26 12 29 30 35 34 30 32 34 37 34 25
55 52 42 34 25 14 9 4 7 11 13 16 21 27 34 37 39 30 31 33 28 23 31 31 50 55 25 4 34 32 38 32 30 33 34 37 38 26
63 61 43 36 26 18 10 7 10 13 17 21 27 31 36 37 32 29 24 30 31 25 30 47 51 60 44 19 37 38 44 42 31 33 31 31 33 27
63 51 36 27 22 19 14 15 14 16 18 21 24 26 30 36 28 26 28 28 34 33 31 49 50 54 40 36 43 40 49 45 33 35 30 23 21 28
59 48 38 29 26 24 22 21 22 24 23 21 16 20 24 27 23 25 27 31 30 33 32 40 46 52 44 57 51 46 55 49 39 34 23 20 14 17
55 48 41 36 34 31 30 30 28 26 20 16 15 19 23 29 33 34 26 29 22 26 29 32 41 44 45 53 51 65 61 40 44 37 19 17 18 16
57 54 49 44 41 38 35 31 28 26 25 22 22 21 26 34 36 34 30 31 16 22 29 33 41 42 36 35 48 65 71 43 50 32 30 30 21 18
59 57 51 48 44 41 38 36 36 38 34 29 23 22 28 30 30 26 30 31 32 33 36 41 41 34 28 34 51 64 54 52 47 33 31 29 26 27
61 56 47 41 42 38 36 39 41 39 34 29 26 29 30 28 30 34 41 41 40 41 42 44 45 32 26 40 56 62 62 54 38 31 36 37 33 30
55 50 47 40 37 35 36 39 42 38 34 33 35 32 34 33 40 40 40 46 46 47 45 49 49 39 36 39 51 62 61 50 37 34 38 36 32 28
59 51 44 41 41 36 36 36 33 37 42 41 35 34 36 36 39 41 45 49 50 48 43 43 40 39 40 39 43 50 57 47 37 35 40 41 31 36
55 48 42 38 36 36 35 35 37 46 48 40 38 40 41 38 39 45 46 49 50 45 39 35 35 31 29 28 36 41 46 50 32 34 37 40 42 38
48 45 42 40 36 34 35 38 46 55 49 47 43 44 42 37 35 44 46 48 50 45 39 38 31 24 22 25 31 31 36 52 50 34 26 37 42 42
46 45 44 42 41 37 39 42 49 55 57 54 50 43 38 37 33 37 46 51 50 46 40 33 29 29 29 29 30 28 29 40 48 50 40 31 25 34
48 45 41 45 42 42 38 47 55 57 60 58 49 42 37 36 34 38 41 48 47 42 41 42 39 37 33 34 33 29 28 36 43 46 51 49 46 45
Wind_Direction_500mb
228 229 236 238 243 246 246 249 240 244 252 262 263 280 281 286 295 304 308 312 313 315 315 310 307 304 306 308 308 307 310 310 301 290 281 278 273 281
235 227 227 229 235 239 237 247 247 243 239 267 274 275 283 292 302 307 312 314 315 317 313 305 302 306 309 310 311 310 313 310 306 301 290 275 267 278
232 219 217 220 231 241 235 238 246 258 252 280 278 284 293 301 307 313 317 318 318 316 309 303 310 314 318 316 313 322 318 309 305 294 284 285 280 281
229 213 208 216 220 226 226 234 253 264 286 272 281 295 303 307 315 322 326 329 328 323 313 313 322 329 340 338 340 328 322 321 314 296 287 285 285 276
216 207 203 192 199 205 219 228 254 301 296 288 306 308 313 318 327 331 334 336 339 325 322 329 338 346 346 348 339 322 319 328 322 312 301 291 284 278
198 194 184 173 178 162 215 223 287 325 322 322 321 327 328 328 339 339 343 342 345 343 340 347 336 341 339 325 319 324 327 324 316 315 315 308 289 287
176 167 164 166 164 140 181 120 350 336 331 332 337 342 336 344 347 345 341 344 358 357 349 344 337 338 326 318 327 332 330 325 320 315 313 315 312 302
168 155 147 141 120 152 116 296 319 338 337 342 353 354 350 351 346 346 346 350 354 351 351 342 347 2 335 341 351 335 322 315 304 303 290 289 303 300
157 148 147 131 117 151 160 35 360 346 352 2 3 4 1 354 356 348 342 338 329 340 348 351 348 347 346 334 355 349 342 329 305 297 290 280 283 297
126 129 122 122 128 128 99 49 2 6 12 25 24 12 4 355 5 355 348 335 335 331 347 346 354 352 6 8 356 350 352 337 321 316 303 291 279 267
113 111 127 136 142 127 104 62 43 33 28 33 30 15 6 359 359 355 331 343 342 343 343 352 355 352 359 4 358 349 347 340 323 317 306 295 277 256
116 123 133 132 120 109 94 82 68 52 39 36 26 11 9 7 356 343 346 336 338 350 338 339 346 350 341 344 338 343 340 337 324 320 307 295 284 273
129 130 121 114 105 98 94 86 68 52 41 37 19 12 9 5 358 353 349 345 337 332 342 338 340 343 333 327 343 347 345 344 334 333 328 309 316 268
124 118 110 105 101 95 84 70 58 51 45 31 18 11 7 4 10 8 357 354 344 346 348 340 338 342 336 334 342 350 359 3 3 0 349 317 308 266
114 108 103 98 91 81 72 66 62 55 46 33 24 15 15 14 15 12 8 356 1 354 358 5 360 351 347 358 350 2 354 8 19 15 4 9 51 95
105 101 99 92 85 76 72 63 56 52 46 39 30 19 19 18 14 12 14 19 16 5 6 6 9 360 14 19 14 11 19 10 16 23 30 45 74 97
107 101 93 86 78 69 62 57 51 48 44 34 26 26 22 28 21 24 24 22 17 9 6 7 16 18 33 25 20 19 20 25 24 43 66 69 71 100
100 94 86 78 69 59 53 50 46 44 40 35 34 27 27 27 23 23 19 23 18 13 10 11 12 27 39 37 26 19 23 32 40 53 67 77 86 92
93 85 77 71 65 58 53 50 42 38 42 40 35 32 31 30 21 20 23 23 20 16 15 13 17 18 24 24 29 25 24 38 47 56 66 75 81 84
85 80 73 67 63 57 50 44 41 45 42 39 34 32 32 30 25 29 27 25 19 17 21 22 22 26 27 26 27 29 35 42 55 64 73 68 88 95
82 79 74 67 62 55 48 44 42 44 40 37 30 32 31 27 21 28 31 28 27 23 26 26 28 33 42 50 49 47 43 51 49 55 75 85 90 95
82 78 73 66 58 52 47 44 43 42 39 35 32 29 26 24 20 25 29 26 25 29 35 33 34 39 43 55 61 62 61 62 59 64 75 82 93 86
81 77 71 66 58 52 44 45 45 41 37 34 28 29 28 23 22 28 28 27 25 30 33 36 43 51 58 68 73 73 73 72 70 66 71 69 68 89
Wind_Speed_850mb
76 79 75 60 55 43 38 33 24 17 18 26 25 34 39 41 48 53 55 59 58 54 52 53 55 54 52 49 45 45 43 38 30 28 35 32 32 34
70 68 60 51 43 35 33 31 29 20 15 20 27 34 37 39 46 49 53 54 52 48 48 51 52 52 49 45 44 43 36 32 29 27 27 31 32 29
56 57 46 36 28 30 30 25 21 15 17 23 27 27 33 38 44 47 49 45 45 45 44 45 43 42 45 43 35 28 27 31 32 28 27 28 28 30
63 60 51 46 36 34 24 18 13 14 15 15 17 23 29 39 44 46 42 36 37 34 35 36 36 37 29 23 24 25 26 26 22 26 29 30 29 29
71 56 54 46 37 25 18 12 8 9 8 9 14 22 30 37 42 39 39 37 36 27 28 28 24 25 26 25 27 31 30 30 26 24 26 29 31 31
63 61 51 38 30 18 12 5 4 5 9 13 14 22 27 35 34 36 39 37 36 24 27 25 21 24 27 27 31 35 33 31 31 30 29 29 32 33
65 60 49 37 27 18 8 1 3 8 12 12 16 16 21 30 32 34 33 39 31 28 29 21 23 26 22 22 29 28 28 30 31 29 25 20 19 21
65 52 40 30 22 12 2 5 7 9 12 12 14 18 23 26 31 31 30 36 33 30 34 30 24 34 23 20 25 27 31 34 30 28 28 27 26 27
66 50 39 30 23 10 8 2 7 10 12 14 17 21 25 32 36 29 27 30 32 32 35 26 31 41 26 12 29 30 35 34 30 32 34 37 34 25
55 52 42 34 25 14 9 4 7 11 13 16 21 27 34 37 39 30 31 33 28 23 31 31 50 55 25 4 34 32 38 32 30 33 34 37 38 26
63 61 43 36 26 18 10 7 10 13 17 21 27 31 36 37 32 29 24 30 31 25 30 47 51 60 44 19 37 38 44 42 31 33 31 31 33 27
63 51 36 27 22 19 14 15 14 16 18 21 24 26 30 36 28 26 28 28 34 33 31 49 50 54 40 36 43 40 49 45 33 35 30 23 21 28
59 48 38 29 26 24 22 21 22 24 23 21 16 20 24 27 23 25 27 31 30 33 32 40 46 52 44 57 51 46 55 49 39 34 23 20 14 17
55 48 41 36 34 31 30 30 28 26 20 16 15 19 23 29 33 34 26 29 22 26 29 32 41 44 45 53 51 65 61 40 44 37 19 17 18 16
57 54 49 44 41 38 35 31 28 26 25 22 22 21 26 34 36 34 30 31 16 22 29 33 41 42 36 35 48 65 71 43 50 32 30 30 21 18
59 57 51 48 44 41 38 36 36 38 34 29 23 22 28 30 30 26 30 31 32 33 36 41 41 34 28 34 51 64 54 52 47 33 31 29 26 27
61 56 47 41 42 38 36 39 41 39 34 29 26 29 30 28 30 34 41 41 40 41 42 44 45 32 26 40 56 62 62 54 38 31 36 37 33 30
55 50 47 40 37 35 36 39 42 38 34 33 35 32 34 33 40 40 40 46 46 47 45 49 49 39 36 39 51 62 61 50 37 34 38 36 32 28
59 51 44 41 41 36 36 36 33 37 42 41 35 34 36 36 39 41 45 49 50 48 43 43 40 39 40 39 43 50 57 47 37 35 40 41 31 36
55 48 42 38 36 36 35 35 37 46 48 40 38 40 41 38 39 45 46 49 50 45 39 35 35 31 29 28 36 41 46 50 32 34 37 40 42 38
48 45 42 40 36 34 35 38 46 55 49 47 43 44 42 37 35 44 46 48 50 45 39 38 31 24 22 25 31 31 36 52 50 34 26 37 42 42
46 45 44 42 41 37 39 42 49 55 57 54 50 43 38 37 33 37 46 51 50 46 40 33 29 29 29 29 30 28 29 40 48 50 40 31 25 34
48 45 41 45 42 42 38 47 55 57 60 58 49 42 37 36 34 38 41 48 47 42 41 42 39 37 33 34 33 29 28 36 43 46 51 49 46 45
Wind_Direction_850mb
228 229 236 238 243 246 246 249 240 244 252 262 263 280 281 286 295 304 308 312 313 315 315 310 307 304 306 308 308 307 310 310 301 290 281 278 273 281
235 227 227 229 235 239 237 247 247 243 239 267 274 275 283 292 302 307 312 314 315 317 313 305 302 306 309 310 311 310 313 310 306 301 290 275 267 278
232 219 217 220 231 241 235 238 246 258 252 280 278 284 293 301 307 313 317 318 318 316 309 303 310 314 318 316 313 322 318 309 305 294 284 285 280 281
229 213 208 216 220 226 226 234 253 264 286 272 281 295 303 307 315 322 326 329 328 323 313 313 322 329 340 338 340 328 322 321 314 296 287 285 285 276
216 207 203 192 199 205 219 228 254 301 296 288 306 308 313 318 327 331 334 336 339 325 322 329 338 346 346 348 339 322 319 328 322 312 301 291 284 278
198 194 184 173 178 162 215 223 287 325 322 322 321 327 328 328 339 339 343 342 345 343 340 347 336 341 339 325 319 324 327 324 316 315 315 308 289 287
176 167 164 166 164 140 181 120 350 336 331 332 337 342 336 344 347 345 341 344 358 357 349 344 337 338 326 318 327 332 330 325 320 315 313 315 312 302
168 155 147 141 120 152 116 296 319 338 337 342 353 354 350 351 346 346 346 350 354 351 351 342 347 2 335 341 351 335 322 315 304 303 290 289 303 300
157 148 147 131 117 151 160 35 360 346 352 2 3 4 1 354 356 348 342 338 329 340 348 351 348 347 346 334 355 349 342 329 305 297 290 280 283 297
126 129 122 122 128 128 99 49 2 6 12 25 24 12 4 355 5 355 348 335 335 331 347 346 354 352 6 8 356 350 352 337 321 316 303 291 279 267
113 111 127 136 142 127 104 62 43 33 28 33 30 15 6 359 359 355 331 343 342 343 343 352 355 352 359 4 358 349 347 340 323 317 306 295 277 256
116 123 133 132 120 109 94 82 68 52 39 36 26 11 9 7 356 343 346 336 338 350 338 339 346 350 341 344 338 343 340 337 324 320 307 295 284 273
129 130 121 114 105 98 94 86 68 52 41 37 19 12 9 5 358 353 349 345 337 332 342 338 340 343 333 327 343 347 345 344 334 333 328 309 316 268
124 118 110 105 101 95 84 70 58 51 45 31 18 11 7 4 10 8 357 354 344 346 348 340 338 342 336 334 342 350 359 3 3 0 349 317 308 266
114 108 103 98 91 81 72 66 62 55 46 33 24 15 15 14 15 12 8 356 1 354 358 5 360 351 347 358 350 2 354 8 19 15 4 9 51 95
105 101 99 92 85 76 72 63 56 52 46 39 30 19 19 18 14 12 14 19 16 5 6 6 9 360 14 19 14 11 19 10 16 23 30 45 74 97
107 101 93 86 78 69 62 57 51 48 44 34 26 26 22 28 21 24 24 22 17 9 6 7 16 18 33 25 20 19 20 25 24 43 66 69 71 100
100 94 86 78 69 59 53 50 46 44 40 35 34 27 27 27 23 23 19 23 18 13 10 11 12 27 39 37 26 19 23 32 40 53 67 77 86 92
93 85 77 71 65 58 53 50 42 38 42 40 35 32 31 30 21 20 23 23 20 16 15 13 17 18 24 24 29 25 24 38 47 56 66 75 81 84
85 80 73 67 63 57 50 44 41 45 42 39 34 32 32 30 25 29 27 25 19 17 21 22 22 26 27 26 27 29 35 42 55 64 73 68 88 95
82 79 74 67 62 55 48 44 42 44 40 37 30 32 31 27 21 28 31 28 27 23 26 26 28 33 42 50 49 47 43 51 49 55 75 85 90 95
82 78 73 66 58 52 47 44 43 42 39 35 32 29 26 24 20 25 29 26 25 29 35 33 34 39 43 55 61 62 61 62 59 64 75 82 93 86
81 77 71 66 58 52 44 45 45 41 37 34 28 29 28 23 22 28 28 27 25 30 33 36 43 51 58 68 73 73 73 72 70 66 71 69 68 89